Regional Weather Roundup
Issued by NWS

Home | Current Version | Previous Version | Text Only | Print | Product List | Glossary Off
Versions: 1 2 3 4 5 6 7 8 9 10 11 12 13 14 15 16 17 18 19 20 21 22 23 24 25 26 27 28 29 30 31 32 33 34 35 36 37 38 39 40 41 42 43 44 45 46 47 48 49 50

000
ASUS43 KOAX 291110
RWRNE

WEATHER ROUNDUP FOR NEBRASKA
NATIONAL WEATHER SERVICE OMAHA NE
600 AM CDT SAT AUG 29 2015

NOTES: SATELLITE DATA IS BEING USED TO AUGMENT CLOUD COVER ABOVE
       12000 FEET.
       "FAIR" INDICATES FEW OR NO CLOUDS BELOW 12,000 FEET WITH NO
       SIGNIFICANT WEATHER AND/OR OBSTRUCTIONS TO VISIBILITY.

  * THESE STATIONS DO NOT REPORT WEATHER SUCH AS RAIN...SNOW OR FOG.

NEZ001>004-019>022-054>056-291200-
NEBRASKA PANHANDLE

CITY           SKY/WX    TMP DP  RH WIND       PRES   REMARKS
SCOTTSBLUFF    CLEAR     53  49  86 E6        30.17S
ALLIANCE       CLEAR     49  45  86 SW3       30.16S
CHADRON        CLEAR     54  48  80 CALM      30.09S HAZE
KIMBALL        CLEAR     50  43  76 W7        30.21F
SIDNEY         CLEAR     53  45  74 W8        30.20S
$$

NEZ057>060-069>072-079>082-291200-
SOUTHWEST NEBRASKA

CITY           SKY/WX    TMP DP  RH WIND       PRES   REMARKS
NORTH PLATTE   MOCLDY    51  50  96 W3        30.12S FOG
IMPERIAL       CLEAR     57  54  89 SW3       30.15S
LEXINGTON      CLEAR     56  55  95 W5        30.10R FOG
MCCOOK         CLEAR     54  54 100 W6        30.12R
OGALLALA       CLEAR     53  53  99 W3        30.15S
$$

NEZ005>010-023>029-035>040-094-291200-
NORTH CENTRAL NEBRASKA

CITY           SKY/WX    TMP DP  RH WIND       PRES   REMARKS
VALENTINE      CLEAR     57  56  96 W5        30.06S
AINSWORTH      CLEAR     60  59  97 SW5       30.08R
BROKEN BOW     CLEAR     58  56  93 CALM      30.08S
O`NEILL        FOG       56  55  99 CALM      30.06S VSB 1/4
ORD            FOG       54  54 100 CALM      30.06R VSB 1/4
THEDFORD       CLEAR     56  55  98 NW5       30.11S FOG
$$

NEZ041-046>049-061>064-073>077-083>087-291200-
SOUTH CENTRAL NEBRASKA

CITY           SKY/WX    TMP DP  RH WIND       PRES   REMARKS
GRAND ISLAND   FOG       58  58 100 W5        30.07R VSB 1/4
AURORA         CLOUDY    59  59 100 N6        30.05S
HASTINGS       FOG       59  58  96 NW3       30.06S VSB 1/4
HEBRON         CLOUDY    62  58  88 NW5       30.04R
HOLDREGE       CLEAR     55  54  95 CALM      30.09R FOG
KEARNEY *      CLEAR     55  52  88 NW7       30.08S
YORK           CLOUDY    59  59 100 N6        30.05R
$$

NEZ011>018-030>034-042>045-291200-
NORTHEAST NEBRASKA

CITY           SKY/WX    TMP DP  RH WIND       PRES   REMARKS
NORFOLK        CLOUDY    60  58  92 N3        30.06R
ALBION         FOG       56  54  95 CALM      30.07R VSB 3/4
BLAIR          CLOUDY    59  58  94 N9        30.03R FOG
COLUMBUS *     CLOUDY   N/A N/A N/A N3        30.05R
FREMONT        CLOUDY    62  59  91 N6        30.04R
TEKAMAH        CLOUDY    62  59  90 N9        30.03R
WAYNE          CLOUDY    59  58  94 NE3       30.06R
$$

NEZ050>053-065>068-078-088>093-291200-
SOUTHEAST NEBRASKA

CITY           SKY/WX    TMP DP  RH WIND       PRES   REMARKS
LINCOLN        CLOUDY    62  61  96 N9        30.03R FOG
OMAHA EPPLEY   DRIZZLE   62  61  96 N7        30.02R
BEATRICE       CLOUDY    62  61  97 N9        30.02R FOG
FALLS CITY     CLOUDY    65  63  93 N6        29.98R
NEBRASKA CITY  CLOUDY    62  62  99 N8        30.01R FOG
PLATTSMOUTH    CLOUDY    62  60  94 N6        30.01R
$$

NEZ044-045-051>053-067-291200-
OMAHA AREA

CITY           SKY/WX    TMP DP  RH WIND       PRES   REMARKS
OMAHA EPPLEY   DRIZZLE   62  61  96 N7        30.02R
BLAIR          CLOUDY    59  58  94 N9        30.03R FOG
FREMONT        CLOUDY    62  59  91 N6        30.04R
MILLARD        CLOUDY    62  60  91 N7        30.02R
OFFUTT AFB     CLOUDY    62  61  95 N6        30.01R FOG
PLATTSMOUTH    CLOUDY    62  60  94 N6        30.01R
WAHOO          CLOUDY    60  59  95 N8        30.04R
$$



USA.gov is the U.S. government's official web portal to all federal, state and local government web resources and services.